{"data":{"norad_id":57470,"intl_designator":"2023-107P","name":"STARLINK-30186","alt_names":[],"object_type":"PAYLOAD","status":"ACTIVE","operator":null,"country":"US","launch_date":"2023-07-28","launch_site_code":"AFETR","launch_vehicle":null,"mission":null,"orbit_class":"UNKNOWN","rcs_meters":null,"size_class":null,"mass_kg":null,"dimensions":null,"purposes":["comms"],"wikipedia_slug":null,"has_3d_model":false,"image_url":null,"decayed_at":null,"tle_current":{"epoch":"2026-05-25T01:57:55.728000Z","epoch_age_seconds":61350,"freshness":"FRESH","line1":"1 57470U 23107P   26145.08189500  .00155549  00000+0  55193-2 0  9998","line2":"2 57470  43.0012 272.9267 0002089 270.0223  90.0390 15.27725897156731","mean_motion":15.27725897,"eccentricity":0.0002089,"inclination_deg":43.0012,"raan_deg":272.9267,"arg_perigee_deg":270.0223,"mean_anomaly_deg":90.039,"bstar":0.0055193,"rev_number":15673,"period_min":94.257746289942,"perigee_km":481.1790521821,"apogee_km":484.04547322405,"semimajor_km":6860.7492627031,"source":"CELESTRAK","updated_at":"2026-05-25T13:38:18.325419Z"}}}